| time (UTC) | temp F | wind direction | speed MPH | gust MPH | rain 1hr in | rain 24hr in | rain mn in | humidity % | barometer mb |
| 20260507123030 | 51 | 347 | 3.0 | 8.0 | 0.00 | 0.00 | 0.00 | 77 | 1020.0 |
| 20260507121607 | 51 | 259 | 2.0 | 10.0 | 0.00 | 0.00 | 0.00 | 76 | 1019.9 |
| 20260507120029 | 52 | 143 | 0.0 | 4.0 | 0.00 | 0.00 | 0.00 | 75 | 1019.9 |
| 20260507114539 | 53 | 244 | 1.0 | 8.0 | 0.00 | 0.00 | 0.00 | 75 | 1019.8 |
| 20260507113104 | 53 | 248 | 5.0 | 15.0 | 0.00 | 0.00 | 0.00 | 75 | 1019.8 |
| 20260507111532 | 53 | 252 | 6.0 | 12.0 | 0.00 | 0.00 | 0.00 | 75 | 1019.8 |
| 20260507110032 | 53 | 256 | 6.0 | 21.0 | 0.00 | 0.00 | 0.00 | 75 | 1019.8 |
| 20260507104607 | 53 | 256 | 4.0 | 11.0 | 0.00 | 0.00 | 0.00 | 75 | 1019.9 |
| 20260507103032 | 54 | 266 | 6.0 | 15.0 | 0.00 | 0.00 | 0.00 | 74 | 1019.9 |
| 20260507101532 | 54 | 251 | 7.0 | 17.0 | 0.00 | 0.00 | 0.00 | 74 | 1020.0 |
| 20260507093030 | 54 | 242 | 3.0 | 7.0 | 0.00 | 0.00 | 0.00 | 73 | 1020.1 |
| 20260507091531 | 54 | 232 | 5.0 | 12.0 | 0.00 | 0.00 | 0.00 | 73 | 1020.1 |
| 20260507090144 | 54 | 224 | 4.0 | 11.0 | 0.00 | 0.00 | 0.00 | 73 | 1020.3 |
| 20260507084529 | 54 | 203 | 5.0 | 11.0 | 0.00 | 0.00 | 0.00 | 74 | 1020.5 |
| 20260507081532 | 55 | 239 | 3.0 | 10.0 | 0.00 | 0.00 | 0.00 | 74 | 1020.8 |
| 20260507080030 | 54 | 227 | 4.0 | 11.0 | 0.00 | 0.00 | 0.00 | 76 | 1020.7 |
| 20260507074532 | 53 | 277 | 2.0 | 9.0 | 0.00 | 0.00 | 0.00 | 78 | 1020.8 |
| 20260507073031 | 52 | 262 | 1.0 | 5.0 | 0.00 | 0.00 | 0.00 | 77 | 1020.7 |
| 20260507071533 | 54 | 213 | 0.0 | 4.0 | 0.00 | 0.00 | 0.00 | 76 | 1020.6 |
| 20260507070105 | 54 | 281 | 1.0 | 5.0 | 0.00 | 0.00 | 0.00 | 76 | 1020.6 |
| 20260507064607 | 54 | 329 | 1.0 | 8.0 | 0.00 | 0.00 | 0.00 | 76 | 1020.7 |
| 20260507063031 | 55 | 277 | 2.0 | 6.0 | 0.00 | 0.00 | 0.00 | 76 | 1020.8 |
| 20260507061530 | 54 | 214 | 0.0 | 5.0 | 0.00 | 0.00 | 0.00 | 76 | 1020.8 |
| 20260507060030 | 54 | 245 | 1.0 | 5.0 | 0.00 | 0.00 | 0.00 | 77 | 1021.0 |
| 20260507054532 | 53 | 255 | 1.0 | 8.0 | 0.00 | 0.00 | 0.00 | 76 | 1021.0 |
| 20260507053107 | 54 | 242 | 2.0 | 5.0 | 0.00 | 0.00 | 0.00 | 73 | 1021.0 |
| 20260507051529 | 57 | 173 | 1.0 | 4.0 | 0.00 | 0.00 | 0.00 | 71 | 1021.1 |
| 20260507050035 | 56 | 274 | 2.0 | 11.0 | 0.00 | 0.00 | 0.00 | 70 | 1021.1 |
| 20260507044528 | 57 | 291 | 1.0 | 6.0 | 0.00 | 0.00 | 0.00 | 68 | 1021.0 |
| 20260507043030 | 58 | 315 | 2.0 | 11.0 | 0.00 | 0.00 | 0.00 | 67 | 1020.9 |
| 20260507041530 | 57 | 261 | 2.0 | 9.0 | 0.00 | 0.00 | 0.00 | 66 | 1020.7 |
| 20260507040037 | 57 | 259 | 2.0 | 6.0 | 0.00 | 0.00 | 0.00 | 65 | 1020.7 |
| 20260507034533 | 59 | 171 | 1.0 | 8.0 | 0.00 | 0.00 | 0.00 | 63 | 1020.7 |
| 20260507033030 | 60 | 238 | 2.0 | 9.0 | 0.00 | 0.00 | 0.00 | 61 | 1020.6 |
| 20260507031531 | 61 | 280 | 2.0 | 11.0 | 0.00 | 0.00 | 0.00 | 58 | 1020.6 |
| 20260507030032 | 63 | 225 | 2.0 | 7.0 | 0.00 | 0.00 | 0.00 | 57 | 1020.7 |
| 20260507024528 | 64 | 248 | 3.0 | 11.0 | 0.00 | 0.00 | 0.00 | 55 | 1020.6 |
| 20260507023031 | 65 | 259 | 4.0 | 10.0 | 0.00 | 0.00 | 0.00 | 53 | 1020.6 |
| 20260507014646 | 68 | 235 | 5.0 | 13.0 | 0.00 | 0.00 | 0.00 | 49 | 1020.2 |
| 20260507013031 | 70 | 241 | 5.0 | 16.0 | 0.00 | 0.00 | 0.00 | 47 | 1020.1 |
| 20260507010032 | 71 | 274 | 4.0 | 11.0 | 0.00 | 0.00 | 0.00 | 44 | 1020.1 |
| 20260507003032 | 74 | 254 | 5.0 | 11.0 | 0.00 | 0.00 | 0.00 | 41 | 1019.9 |
| 20260507001531 | 74 | 261 | 5.0 | 13.0 | 0.00 | 0.00 | 0.00 | 42 | 1019.8 |
| 20260507000031 | 73 | 265 | 4.0 | 12.0 | 0.00 | 0.00 | 0.00 | 42 | 1019.6 |
| 20260506230030 | 75 | 258 | 6.0 | 18.0 | 0.00 | 0.00 | 0.00 | 40 | 1019.4 |
| 20260506224529 | 75 | 264 | 8.0 | 19.0 | 0.00 | 0.00 | 0.00 | 40 | 1019.5 |
| 20260506223032 | 74 | 272 | 6.0 | 15.0 | 0.00 | 0.00 | 0.00 | 42 | 1019.6 |
| 20260506221606 | 73 | 293 | 8.0 | 19.0 | 0.00 | 0.00 | 0.00 | 43 | 1019.8 |
| 20260506220031 | 73 | 289 | 10.0 | 18.0 | 0.00 | 0.00 | 0.00 | 43 | 1019.7 |
| 20260506214532 | 74 | 289 | 10.0 | 21.0 | 0.00 | 0.00 | 0.00 | 44 | 1019.6 |
| 20260506213029 | 72 | 267 | 7.0 | 20.0 | 0.00 | 0.00 | 0.00 | 47 | 1019.6 |
| 20260506211529 | 72 | 256 | 6.0 | 17.0 | 0.00 | 0.00 | 0.00 | 47 | 1019.6 |
| 20260506210030 | 71 | 254 | 5.0 | 17.0 | 0.00 | 0.00 | 0.00 | 48 | 1019.7 |
| 20260506204531 | 71 | 274 | 6.0 | 18.0 | 0.00 | 0.00 | 0.00 | 48 | 1019.9 |
| 20260506203031 | 72 | 283 | 8.0 | 17.0 | 0.00 | 0.00 | 0.00 | 46 | 1019.8 |
| 20260506201540 | 72 | 282 | 7.0 | 17.0 | 0.00 | 0.00 | 0.00 | 45 | 1019.8 |
| 20260506200028 | 72 | 284 | 5.0 | 13.0 | 0.00 | 0.00 | 0.00 | 46 | 1019.8 |
| 20260506194532 | 72 | 278 | 9.0 | 18.0 | 0.00 | 0.00 | 0.00 | 46 | 1019.8 |
| 20260506193104 | 72 | 273 | 7.0 | 14.0 | 0.00 | 0.00 | 0.00 | 47 | 1019.9 |
| 20260506191531 | 72 | 283 | 8.0 | 19.0 | 0.00 | 0.00 | 0.00 | 47 | 1019.9 |
| 20260506190031 | 72 | 284 | 7.0 | 17.0 | 0.00 | 0.00 | 0.00 | 47 | 1019.9 |
| 20260506183147 | 71 | 290 | 4.0 | 10.0 | 0.00 | 0.00 | 0.00 | 50 | 1019.8 |
| 20260506181530 | 70 | 294 | 7.0 | 15.0 | 0.00 | 0.00 | 0.00 | 51 | 1020.0 |
| 20260506180031 | 70 | 299 | 8.0 | 20.0 | 0.00 | 0.00 | 0.00 | 50 | 1019.9 |
| 20260506174529 | 73 | 290 | 9.0 | 18.0 | 0.00 | 0.00 | 0.00 | 47 | 1019.8 |
| 20260506173029 | 73 | 267 | 5.0 | 13.0 | 0.00 | 0.00 | 0.00 | 49 | 1019.6 |
| 20260506171531 | 70 | 280 | 2.0 | 9.0 | 0.00 | 0.00 | 0.00 | 52 | 1019.6 |
| 20260506170030 | 68 | 299 | 5.0 | 10.0 | 0.00 | 0.00 | 0.00 | 54 | 1019.7 |
| 20260506164530 | 67 | 301 | 6.0 | 13.0 | 0.00 | 0.00 | 0.00 | 56 | 1019.7 |
| 20260506163031 | 66 | 279 | 7.0 | 17.0 | 0.00 | 0.00 | 0.00 | 58 | 1020.2 |
| 20260506161529 | 66 | 282 | 7.0 | 14.0 | 0.00 | 0.00 | 0.00 | 59 | 1020.3 |
| 20260506154530 | 67 | 268 | 4.0 | 14.0 | 0.00 | 0.00 | 0.00 | 61 | 1020.1 |
| 20260506153107 | 66 | 116 | 0.0 | 3.0 | 0.00 | 0.00 | 0.00 | 68 | 1020.0 |
| 20260506151530 | 64 | 145 | 1.0 | 3.0 | 0.00 | 0.00 | 0.00 | 76 | 1019.9 |
| 20260506150106 | 62 | 117 | 0.0 | 4.0 | 0.00 | 0.00 | 0.00 | 82 | 1020.2 |
| 20260506144530 | 59 | 131 | 0.0 | 2.0 | 0.00 | 0.00 | 0.00 | 87 | 1020.2 |
| 20260506141646 | 53 | 174 | 1.0 | 3.0 | 0.00 | 0.00 | 0.00 | 93 | 1020.1 |
| 20260506134534 | 47 | 221 | 1.0 | 3.0 | 0.00 | 0.00 | 0.00 | 95 | 1019.7 |
| 20260506133144 | 45 | 182 | 3.0 | 6.0 | 0.00 | 0.00 | 0.00 | 96 | 1019.5 |
| 20260506131531 | 44 | 218 | 4.0 | 11.0 | 0.00 | 0.00 | 0.00 | 96 | 1019.4 |
| 20260506130031 | 43 | 175 | 2.0 | 6.0 | 0.00 | 0.00 | 0.00 | 96 | 1019.3 |
| 20260506124533 | 43 | 144 | 2.0 | 5.0 | 0.00 | 0.00 | 0.00 | 96 | 1019.2 |